Regional Weather Roundup
Issued by NWS

Home | Current Version | Previous Version | Text Only | Print | Product List | Glossary Off
Versions: 1 2 3 4 5 6 7 8 9 10 11 12 13 14 15 16 17 18 19 20 21 22 23 24 25 26 27 28 29 30 31 32 33 34 35 36 37 38 39 40 41 42 43 44 45 46 47 48 49 50

000
ASUS45 KSLC 261210
RWRUT

UTAH REGIONAL WEATHER ROUNDUP
NATIONAL WEATHER SERVICE SALT LAKE CITY UT
600 AM MDT SUN APR 26 2015

UTZ001>011-023>025-261300-

NORTHERN UTAH

CITY           SKY/WX    TMP DP  RH WIND       PRES   REMARKS
BRIGHAM CITY   CLOUDY    41  35  79 N18       29.83R
HILL AFB       LGT RAIN  38  38  99 NW9       29.82R WCI  31
LOGAN          LGT RAIN  39  35  86 N17       29.82R WCI  30
OGDEN          LGT RAIN  39  37  92 NW9       29.82R WCI  33
PROVO AIRPORT  CLOUDY    39  36  87 NW17      29.83R WCI  30
SALT LAKE CITY LGT RAIN  39  36  89 NW21      29.84R WCI  29
VERNAL         MOCLDY    41  38  89 W3        29.72S
WENDOVER       CLEAR     39  27  60 NW12      29.89R WCI  32
HEBER CITY     MIX PCPN  34  32  93 CALM      29.77R
WEST JORDAN    CLOUDY    36  36 100 NW15G25   29.85R WCI  26

$$

UTZ012>022-026-027-261300-

SOUTHERN/CENTRAL UTAH

CITY           SKY/WX    TMP DP  RH WIND       PRES   REMARKS
BLANDING       CLOUDY    39  38  99 S6        29.82R WCI  35
BRYCE CANYON   PTCLDY    32  29  88 NW12      29.78S WCI  23
CEDAR CITY     LGT RAIN  38  36  92 NW17G25   29.82R WCI  28
DELTA          CLOUDY    39  36  89 NW20      29.84R WCI  30
HANKSVILLE     CLOUDY    45  39  81 CALM      29.73S
MILFORD        CLOUDY    38  31  76 N7        29.83R WCI  33
MOAB/CYNLANDS  CLOUDY    46  42  86 W3        29.69S
PRICE          CLOUDY    40  36  86 CALM      29.72S
ST GEORGE      PTSUNNY   45  37  76 SE6       29.80S
KANAB          PTCLDY    37  37 100 CALM      29.81R

$$

REGIONAL REPORTS     COLORADO/ARIZONA

CITY           SKY/WX    TMP DP  RH WIND       PRES   REMARKS
CRAIG, CO      PTCLDY    34  31  88 SW6       29.75R WCI  29
GRAND JUNCTION LGT RAIN  43  43 100 NW3       29.71R
RIFLE          MOCLDY    38  36  92 S3        29.72S
MONTROSE       CLOUDY    40  38  93 E7        29.73R
CORTEZ         CLOUDY    37  36  96 E8        29.76S WCI  31
PAGE, AZ       PTCLDY    47  39  74 CALM      29.73S
GRAND CANYON   LGT RAIN  35  35 100 W5        29.78S FOG     WCI  31
KINGMAN        CLEAR     37  35  92 CALM      29.82R
FLAGSTAFF      FLURRIES  33  33 100 SW6       29.76S WCI  28

$$

REGIONAL REPORTS    NEVADA/IDAHO/WYOMING

CITY           SKY/WX    TMP DP  RH WIND       PRES   REMARKS
LAS VEGAS, NV  PTCLDY    57  29  34 NW12G24   29.78R
ELY            PTCLDY    32  27  81 W10       29.93R WCI  24
ELKO           CLOUDY    35  24  64 W14       29.98R WCI  26
POCATELLO, ID  CLOUDY    36  32  85 SW22      29.88R WCI  25
BURLEY         MOCLDY    35  26  69 W18G28    29.89R WCI  24
EVANSTON, WY   SNOW      32  31  96 SW7       29.75R VSB 1/2 WCI  26
ROCK SPRINGS   CLOUDY    38  33  82 E7        29.73R WCI  33
KEMMERER       DRIZZLE   34  34 100 N6        29.73R WCI  29

$$


USA.gov is the U.S. government's official web portal to all federal, state and local government web resources and services.